Weather History for Pampa, TX

Change the Weather History Date:

Monday, October 8, 2012

  Actual Average Record
Temperature  
Mean Temperature 47 °F -  
Max Temperature 62 °F 72 °F 95 °F (1979)
Min Temperature 32 °F 47 °F 30 °F (1970)
Degree Days  
Heating Degree Days 18    
Moisture  
Dew Point 33 °F    
Average Humidity 61    
Maximum Humidity 93    
Minimum Humidity 32    
Precipitation  
Precipitation 0.00 in - - ()
Sea Level Pressure  
Sea Level Pressure 30.06 in    
Wind  
Wind Speed 14 mph (SSW)    
Max Wind Speed 22 mph    
Max Gust Speed 31 mph    
Visibility 10 miles    
Events      
Averages and records for this station are not official NWS values.
T = Trace of Precipitation, MM = Missing Value Source: NWS Daily Summary

Daily Weather History Graph

Daily Weather History Graph

Search for Another Location

Airport:

Trip Planner

Search our weather history database for the weather conditions in past years. The results will help you decide how hot, cold, wet, or windy it might be!

Date:

Astronomy

Oct. 08, 2012 Rise Set
Actual Time 7:44 AM CDT 7:17 PM CDT
Civil Twilight 7:19 AM CDT 7:42 PM CDT
Nautical Twilight 6:49 AM CDT 8:12 PM CDT
Astronomical Twilight 6:20 AM CDT 8:41 PM CDT
Moon 12:39 AM CDT (10/8) 2:55 PM CDT (10/8)
Length of Visible Light 12h 23m
Length of Day
11h 32m
Last Quarter, 46% of the Moon is Illuminated
Oct 8
Last Quarter
Oct 15
New
Oct 21
First Quarter
Oct 29
Full
Nov 6
Last Quarter

Hourly Weather History & Observations

Time (CDT) Temp. Windchill Dew Point Humidity Pressure Visibility Wind Dir Wind Speed Gust Speed Precip Events Conditions
12:15 AM 33.8 °F 24.8 °F 30.2 °F 87% 30.19 in 10.0 mi SSW 12.7 mph - N/A   Clear
12:35 AM 33.8 °F 24.8 °F 30.2 °F 87% 30.18 in 10.0 mi SSW 12.7 mph - N/A   Clear
12:55 AM 33.8 °F 24.3 °F 30.2 °F 87% 30.18 in 10.0 mi SSW 13.8 mph - N/A   Clear
1:15 AM 33.8 °F 24.3 °F 30.2 °F 87% 30.18 in 10.0 mi SSW 13.8 mph - N/A   Clear
1:35 AM 33.8 °F 24.3 °F 30.2 °F 87% 30.18 in 10.0 mi SSW 13.8 mph - N/A   Clear
1:55 AM 33.8 °F 24.3 °F 30.2 °F 87% 30.18 in 10.0 mi SSW 13.8 mph - N/A   Clear
2:15 AM 33.8 °F 24.8 °F 30.2 °F 87% 30.18 in 10.0 mi SSW 12.7 mph - N/A   Clear
2:35 AM 33.8 °F 25.3 °F 30.2 °F 87% 30.18 in 10.0 mi SSW 11.5 mph - N/A   Clear
2:55 AM 33.8 °F 25.8 °F 30.2 °F 87% 30.17 in 10.0 mi SSW 10.4 mph - N/A   Clear
3:15 AM 33.8 °F 24.8 °F 30.2 °F 87% 30.16 in 10.0 mi SSW 12.7 mph - N/A   Clear
3:35 AM 33.8 °F 25.3 °F 30.2 °F 87% 30.16 in 10.0 mi SSW 11.5 mph - N/A   Clear
3:55 AM 33.8 °F 25.3 °F 30.2 °F 87% 30.14 in 10.0 mi SW 11.5 mph - N/A   Clear
4:15 AM 33.8 °F 25.3 °F 30.2 °F 87% 30.14 in 10.0 mi SW 11.5 mph - N/A   Clear
4:35 AM 33.8 °F 26.4 °F 30.2 °F 87% 30.14 in 10.0 mi WSW 9.2 mph - N/A   Clear
4:55 AM 32.0 °F 25.6 °F 28.4 °F 87% 30.13 in 10.0 mi WSW 6.9 mph - N/A   Clear
5:15 AM 32.0 °F 25.6 °F 28.4 °F 87% 30.13 in 10.0 mi WSW 6.9 mph - N/A   Clear
5:35 AM 32.0 °F 24.8 °F 30.2 °F 93% 30.13 in 10.0 mi West 8.1 mph - N/A   Clear
5:55 AM 33.8 °F 27.7 °F 30.2 °F 87% 30.13 in 10.0 mi WSW 6.9 mph - N/A   Clear
6:15 AM 33.8 °F 26.4 °F 30.2 °F 87% 30.13 in 10.0 mi WSW 9.2 mph - N/A   Clear
6:35 AM 32.0 °F 24.8 °F 30.2 °F 93% 30.12 in 10.0 mi WSW 8.1 mph - N/A   Clear
7:15 AM 32.0 °F 25.6 °F 28.4 °F 87% 30.12 in 10.0 mi WSW 6.9 mph - N/A   Clear
7:35 AM 32.0 °F 24.8 °F 30.2 °F 93% 30.12 in 10.0 mi SW 8.1 mph - N/A   Clear
7:55 AM 32.0 °F 23.6 °F 30.2 °F 93% 30.12 in 10.0 mi WSW 10.4 mph - N/A   Clear
8:15 AM 33.8 °F 25.8 °F 30.2 °F 87% 30.12 in 10.0 mi SW 10.4 mph - N/A   Clear
8:35 AM 35.6 °F 27.1 °F 32.0 °F 87% 30.13 in 10.0 mi SW 12.7 mph - N/A   Clear
8:55 AM 39.2 °F 31.6 °F 32.0 °F 75% 30.13 in 10.0 mi WSW 12.7 mph - N/A   Clear
9:15 AM 44.6 °F 38.4 °F 32.0 °F 61% 30.13 in 10.0 mi WSW 12.7 mph - N/A   Clear
9:35 AM 46.4 °F 39.8 °F 33.8 °F 62% 30.14 in 10.0 mi WSW 16.1 mph - N/A   Clear
9:55 AM 48.2 °F - 33.8 °F 58% 30.14 in 10.0 mi WSW 13.8 mph - N/A   Clear
10:15 AM 50.0 °F - 33.8 °F 54% 30.13 in 10.0 mi WSW 17.3 mph - N/A   Clear
10:35 AM 51.8 °F - 35.6 °F 54% 30.13 in 10.0 mi WSW 19.6 mph 23.0 mph N/A   Clear
10:55 AM 53.6 °F - 35.6 °F 51% 30.12 in 10.0 mi WSW 16.1 mph - N/A   Clear
11:15 AM 53.6 °F - 35.6 °F 51% 30.12 in 10.0 mi SW 16.1 mph - N/A   Clear
11:35 AM 55.4 °F - 35.6 °F 47% 30.11 in 10.0 mi WSW 13.8 mph - N/A   Clear
11:55 AM 57.2 °F - 33.8 °F 41% 30.10 in 10.0 mi SW 18.4 mph 23.0 mph N/A   Clear
12:15 PM 59.0 °F - 33.8 °F 39% 30.09 in 10.0 mi SW 19.6 mph 25.3 mph N/A   Clear
12:35 PM 59.0 °F - 33.8 °F 39% 30.08 in 10.0 mi SSW 19.6 mph 27.6 mph N/A   Clear
12:55 PM 60.8 °F - 33.8 °F 36% 30.07 in 10.0 mi SSW 19.6 mph 24.2 mph N/A   Clear
1:15 PM 60.8 °F - 33.8 °F 36% 30.06 in 10.0 mi SSW 20.7 mph 26.5 mph N/A   Clear
1:35 PM 62.6 °F - 33.8 °F 34% 30.05 in 10.0 mi SSW 19.6 mph 25.3 mph N/A   Clear
1:55 PM 60.8 °F - 33.8 °F 36% 30.03 in 10.0 mi SSW 21.9 mph 29.9 mph N/A   Clear
2:15 PM 62.6 °F - 32.0 °F 32% 30.02 in 10.0 mi SSW 20.7 mph 28.8 mph N/A   Clear
2:35 PM 60.8 °F - 32.0 °F 34% 30.01 in 10.0 mi SW 19.6 mph 31.1 mph N/A   Clear
2:55 PM 62.6 °F - 32.0 °F 32% 30.00 in 10.0 mi SSW 20.7 mph 25.3 mph N/A   Clear
3:15 PM 62.6 °F - 32.0 °F 32% 29.99 in 10.0 mi SSW 20.7 mph 26.5 mph N/A   Clear
3:35 PM 62.6 °F - 32.0 °F 32% 29.99 in 10.0 mi SSW 18.4 mph 27.6 mph N/A   Clear
3:55 PM 62.6 °F - 32.0 °F 32% 29.98 in 10.0 mi SSW 20.7 mph - N/A   Clear
4:15 PM 62.6 °F - 33.8 °F 34% 29.98 in 10.0 mi SSW 18.4 mph 24.2 mph N/A   Clear
4:35 PM 62.6 °F - 33.8 °F 34% 29.97 in 10.0 mi SSW 15.0 mph 21.9 mph N/A   Clear
4:55 PM 62.6 °F - 33.8 °F 34% 29.96 in 10.0 mi South 16.1 mph - N/A   Clear
5:15 PM 62.6 °F - 33.8 °F 34% 29.96 in 10.0 mi South 17.3 mph 21.9 mph N/A   Clear
5:55 PM 62.6 °F - 33.8 °F 34% 29.95 in 10.0 mi South 15.0 mph - N/A   Clear
6:15 PM 62.6 °F - 35.6 °F 37% 29.94 in 10.0 mi South 11.5 mph - N/A   Clear
6:35 PM 60.8 °F - 35.6 °F 39% 29.94 in 10.0 mi South 12.7 mph - N/A   Clear
6:55 PM 60.8 °F - 35.6 °F 39% 29.94 in 10.0 mi South 13.8 mph - N/A   Clear
7:15 PM 59.0 °F - 35.6 °F 42% 29.94 in 10.0 mi SE 9.2 mph - N/A   Clear
7:35 PM 55.4 °F - 35.6 °F 47% 29.94 in 10.0 mi SSE 12.7 mph - N/A   Clear
7:55 PM 55.4 °F - 35.6 °F 47% 29.94 in 10.0 mi SSE 13.8 mph - N/A   Clear
8:15 PM 55.4 °F - 35.6 °F 47% 29.93 in 10.0 mi SSE 17.3 mph - N/A   Clear
8:35 PM 53.6 °F - 35.6 °F 51% 29.94 in 10.0 mi SSE 18.4 mph 25.3 mph N/A   Clear
8:55 PM 53.6 °F - 35.6 °F 51% 29.94 in 10.0 mi SSE 18.4 mph 24.2 mph N/A   Clear
9:15 PM 53.6 °F - 35.6 °F 51% 29.95 in 10.0 mi SSE 17.3 mph - N/A   Clear
9:35 PM 51.8 °F - 35.6 °F 54% 29.95 in 10.0 mi SSE 16.1 mph 20.7 mph N/A   Clear
9:55 PM 51.8 °F - 35.6 °F 54% 29.95 in 10.0 mi SSE 16.1 mph - N/A   Clear
11:15 PM 50.0 °F - 35.6 °F 58% 29.94 in 10.0 mi South 18.4 mph 25.3 mph N/A   Clear
11:35 PM 50.0 °F - 35.6 °F 58% 29.94 in 10.0 mi South 20.7 mph 27.6 mph N/A   Clear
11:55 PM 50.0 °F - 35.6 °F 58% 29.93 in 10.0 mi South 19.6 mph 27.6 mph N/A   Clear